Regional Weather Roundup
Issued by NWS

Home | Current Version | Previous Version | Text Only | Print | Product List | Glossary On
Versions: 1 2 3 4 5 6 7 8 9 10 11 12 13 14 15 16 17 18 19 20 21 22 23 24 25 26 27 28 29 30 31 32 33 34 35 36 37 38 39 40 41 42 43 44 45 46 47 48 49 50
000
ASUS43 KDTX 281801
RWRMI
MICHIGAN HOURLY REGIONAL WEATHER ROUNDUP
NATIONAL WEATHER SERVICE DETROIT/PONTIAC MI
100 PM EST WED JAN 28 2015

NOTE: "FAIR" INDICATES FEW OR NO CLOUDS BELOW 12,000 FEET WITH NO
SIGNIFICANT WEATHER AND/OR OBSTRUCTION TO VISIBILITY.

MIZ047>049-052>055-059>063-066>070-074>076-081>083-281900-
SOUTHEAST LOWER MICHIGAN

CITY           SKY/WX    TMP DP  RH WIND       PRES   REMARKS
ADRIAN         SUNNY     24   9  52 S8        30.32F WCI  15
6HR MIN TEMP:   6; 6HR MAX TEMP:  25;

ALMA           SUNNY     28  15  56 S6        30.27F WCI  22
ANN ARBOR      SUNNY     27  10  49 S6        30.32F WCI  20
BAD AXE        SUNNY     24  11  57 SW6       30.29F WCI  17
6HR MIN TEMP:   0; 6HR MAX TEMP:  24;

CARO           SUNNY     28   7  40 S5        30.28F WCI  23
DETROIT CITY   SUNNY     28  12  51 S8        30.33F WCI  20
6HR MIN TEMP:  13; 6HR MAX TEMP:  29;

DETROIT        MOSUNNY   28  10  46 S8        30.34F WCI  20
6HR MIN TEMP:  12; 6HR MAX TEMP:  28;

FLINT          SUNNY     29   9  43 VRB5      30.29F WCI  24
6HR MIN TEMP:   5; 6HR MAX TEMP:  29;

GROSSE ILE     SUNNY     21  16  79 S8        30.33F WCI  12
HILLSDALE      SUNNY     26   9  48 S8        30.27F WCI  18
6HR MIN TEMP:   6; 6HR MAX TEMP:  26;

HOWELL         SUNNY     28   8  41 S7        30.28F WCI  21

CITY           SKY/WX    TMP DP  RH WIND       PRES   REMARKS
JACKSON        SUNNY     29   7  39 SE12      30.28F WCI  19
6HR MIN TEMP:   7; 6HR MAX TEMP:  29;

LAMBERTVILLE   SUNNY     30  12  47 CALM      30.34S
LANSING        SUNNY     29  10  45 SE10      30.28F WCI  20
6HR MIN TEMP:  11; 6HR MAX TEMP:  29;

LAPEER         FAIR      26   8  45 CALM      30.29F
MASON          SUNNY     28  10  48 SE8       30.28F WCI  20
MONROE         SUNNY     27  14  59 S7        30.33S WCI  19
MT. CLEMENS    MOSUNNY   26  10  52 S8        30.30F WCI  17
6HR MIN TEMP:   6; 6HR MAX TEMP:  26;

PONTIAC        MOSUNNY   27   8  44 VRB3      30.28F
6HR MIN TEMP:   6; 6HR MAX TEMP:  28;

PORT HOPE        N/A     25   8  48 SW6       30.28F WCI  18
6HR MIN TEMP:  11; 6HR MAX TEMP:  26;

PORT HURON     SUNNY     27  12  54 S6        30.32S WCI  20
TRI CITIES     SUNNY     29  12  49 S8        30.29F WCI  21
6HR MIN TEMP:   9; 6HR MAX TEMP:  29;

TROY           SUNNY     31   0  26 CALM      30.32F
SAGINAW HB     SUNNY     30  12  47 SW8       30.29F WCI  23
$$
MIZ043>046-050>051-056>058-064>065-071>073-077>080-281900-
SOUTHWEST LOWER MICHIGAN

CITY           SKY/WX    TMP DP  RH WIND       PRES   REMARKS
BATTLE CREEK   FAIR      29   8  41 S13       30.26F WCI  19
6HR MIN TEMP:  11; 6HR MAX TEMP:  29;

BENTON HARBOR  MOSUNNY   30  11  45 S9        30.25F WCI  22
6HR MIN TEMP:  13; 6HR MAX TEMP:  30;

BIG RAPIDS     SUNNY     29  15  58 SW10      30.22F WCI  19
6HR MIN TEMP:   1; 6HR MAX TEMP:  29;

COLDWATER      SUNNY     27   9  46 S9        30.27F WCI  17
6HR MIN TEMP:   6; 6HR MAX TEMP:  27;

FREMONT        FAIR      28   9  46 S8        30.24F WCI  19
HOLLAND        MOSUNNY   30  10  43 S8        30.26F WCI  22
6HR MIN TEMP:  13; 6HR MAX TEMP:  31;

GRAND RAPIDS   PTSUNNY   28  11  48 S12       30.26F WCI  18
6HR MIN TEMP:  10; 6HR MAX TEMP:  29;

IONIA          FAIR      29  12  48 S8        30.26F WCI  22
KALAMAZOO      PTSUNNY   28  10  46 S8        30.27F WCI  20
6HR MIN TEMP:   8; 6HR MAX TEMP:  28;

LUDINGTON      CLOUDY    31  21  68 S10       30.22F WCI  22
6HR MIN TEMP:  10; 6HR MAX TEMP:  31;

MARSHALL       SUNNY     28   7  41 S9        30.27F WCI  19
MOUNT PLEASANT SUNNY     27  14  56 SE8       30.26F WCI  19
6HR MIN TEMP:   3; 6HR MAX TEMP:  28;

MUSKEGON       CLOUDY    29  14  53 S13       30.26F WCI  19
6HR MIN TEMP:  11; 6HR MAX TEMP:  29;

SOUTH HAVEN    MOSUNNY   30   6  36 S9        30.26F WCI  22
$$
MIZ016>042-281900-
NORTHERN LOWER MICHIGAN

CITY           SKY/WX    TMP DP  RH WIND       PRES   REMARKS
ALPENA         SUNNY     24   1  36 S8        30.25F WCI  15
6HR MIN TEMP:  -5; 6HR MAX TEMP:  24;

BEAVER ISLAND  CLOUDY    26  19  75 S9        30.21F WCI  17
6HR MIN TEMP:  16; 6HR MAX TEMP:  26;

BELLAIRE       SUNNY     27   3  34 CALM      30.24F
6HR MIN TEMP:  -2; 6HR MAX TEMP:  27;

CADILLAC       FAIR      27  13  56 S7        30.18F WCI  19
CHARLEVOIX     MOSUNNY   26  10  51 SE6       30.25F WCI  19
6HR MIN TEMP:   5; 6HR MAX TEMP:  26;

FRANKFORT      CLOUDY    28  18  64 SE9       30.21F WCI  20
GAYLORD        SUNNY     23   0  36 S8        30.18F WCI  14
6HR MIN TEMP:  -8; 6HR MAX TEMP:  23;

GRAYLING       SUNNY     28   7  41 S3        30.20F
6HR MIN TEMP: -10; 6HR MAX TEMP:  28;

HARBOR SPRINGS MOSUNNY   28   4  35 CALM      30.22F
HOUGHTON LAKE  SUNNY     27   7  42 VRB3      30.22F
6HR MIN TEMP:  -5; 6HR MAX TEMP:  27;

MANISTEE       CLOUDY    28  16  59 S7        30.23F WCI  21
OSCODA         SUNNY     28   9  46 SW8       30.27F WCI  19
PELLSTON       MOSUNNY   25   9  50 SE6       30.23F WCI  18
6HR MIN TEMP:  -9; 6HR MAX TEMP:  25;

ROGERS CITY    SUNNY     25   5  42 S6        30.26F WCI  18
TRAVERSE CITY  CLOUDY    29  13  51 VRB6      30.21F WCI  23
6HR MIN TEMP:   4; 6HR MAX TEMP:  29;

$$
MIZ007>008-015-281900-
EASTERN UPPER MICHIGAN

CITY           SKY/WX    TMP DP  RH WIND       PRES   REMARKS
KINROSS        FAIR      25  14  63 SE8       30.21F WCI  16
6HR MIN TEMP:  -2; 6HR MAX TEMP:  25;

MACKINAC ISLAN MOSUNNY   25   8  48 SE6       30.22F WCI  18
6HR MIN TEMP:   8; 6HR MAX TEMP:  25;

NEWBERRY       CLOUDY    23  17  80 S10       30.17F WCI  12
6HR MIN TEMP:  11; 6HR MAX TEMP:  23;

S. S. MARIE    CLOUDY    18   5  57 CALM      30.23F
6HR MIN TEMP:  -1; 6HR MAX TEMP:  18;

MUNISING         N/A     30  19  63 S13G21    30.11F WCI  20
6HR MIN TEMP:  21; 6HR MAX TEMP:  30;

$$
MIZ004>006-011>014-085-281900-
CENTRAL UPPER MICHIGAN

CITY           SKY/WX    TMP DP  RH WIND       PRES   REMARKS
MANISTIQUE     CLOUDY    28  23  82 S7        30.17F WCI  20
ESCANABA       CLOUDY    27  19  74 S13       30.15F WCI  16
6HR MIN TEMP:  19; 6HR MAX TEMP:  27;

MENOMINEE      PTSUNNY   28  21  74 S10G17    30.15F WCI  19
6HR MIN TEMP:  19; 6HR MAX TEMP:  28;

SAWYER-GWINN   CLOUDY    25  19  80 SW17G24   30.07F WCI  11
$$
MIZ001>003-009>011-084-281900-
WESTERN UPPER MICHIGAN

CITY           SKY/WX    TMP DP  RH WIND       PRES   REMARKS
IRON MOUNTAIN  CLOUDY    27  19  72 S14G21    30.08F WCI  16
6HR MIN TEMP:  21; 6HR MAX TEMP:  27;

HOUGHTON       CLOUDY    28  22  78 SE10      30.00F WCI  19
6HR MIN TEMP:  21; 6HR MAX TEMP:  28;

COPPER HARBOR    N/A     29  22  75 CALM      30.04F
6HR MIN TEMP:  26; 6HR MAX TEMP:  29;

IRONWOOD       CLOUDY    28  23  80 S10G17    29.93F WCI  19
6HR MIN TEMP:  25; 6HR MAX TEMP:  28;

$$

ABBREVIATIONS USED IN REMARKS
   TC - TEMPERATURE IN CELSIUS
  WCI - WIND CHILL INDEX
   HX - HEAT INDEX
  VSB - VISIBILITY




USA.gov is the U.S. government's official web portal to all federal, state and local government web resources and services.